Wind_Speed
4 4 2 3 4 4 4 4 2 5 2 1 1 3 2 3 4 4 4 3 2 6 11 12 15 16 16 16 15 14 15 16 16 18 18 18 18 16 14 14 14 14 16 15 15 14 14 13 13
3 2 1 1 3 4 4 2 2 1 3 3 2 2 1 6 5 3 3 6 0 8 9 11 15 16 16 16 16 16 14 15 15 17 18 18 17 16 16 14 13 15 16 15 16 15 15 15 14
2 2 3 2 2 0 4 3 3 6 4 2 2 1 3 10 13 10 14 9 1 6 7 9 15 16 16 17 18 18 18 16 16 16 16 18 17 17 16 15 14 16 17 16 16 16 15 15 13
3 2 2 4 2 3 3 4 7 6 3 1 2 4 8 24 15 20 17 8 3 4 5 7 13 14 15 15 16 17 17 18 19 19 19 18 17 17 16 15 15 16 18 18 17 17 16 15 14
1 2 3 2 1 3 4 6 5 4 2 6 6 4 10 31 36 31 27 17 13 7 5 6 9 12 14 16 16 16 17 17 17 18 19 20 19 18 17 17 16 18 18 19 18 19 17 16 14
2 2 4 3 3 3 5 9 3 7 8 17 8 5 9 26 45 38 30 29 27 24 19 16 12 13 14 15 16 16 17 16 16 16 18 18 18 17 16 17 17 19 18 18 19 20 18 16 15
1 2 2 2 1 4 3 1 10 8 16 12 12 2 7 38 40 30 26 28 29 29 27 27 23 16 12 17 18 18 18 18 18 16 17 18 17 17 18 18 18 19 19 20 19 19 19 18 15
0 2 3 3 2 4 5 3 7 11 15 4 17 10 8 32 35 24 24 30 31 33 32 32 30 25 22 15 15 21 21 22 21 21 21 21 20 19 19 18 17 18 21 22 22 21 18 16 15
1 3 3 1 0 4 7 6 11 9 17 23 12 16 19 26 29 30 35 36 37 36 35 34 33 30 27 22 18 14 24 25 24 23 24 24 21 19 18 16 16 17 22 24 22 19 16 16 15
2 2 4 6 5 5 14 9 7 5 12 14 18 20 25 28 32 34 35 34 36 37 36 35 34 32 31 25 23 16 15 23 23 23 23 24 23 22 20 18 19 18 21 22 20 17 15 14 12
2 3 3 8 10 5 8 18 15 4 10 15 16 18 24 28 31 32 31 30 30 30 32 34 33 31 31 29 26 22 18 17 24 26 26 26 23 20 22 19 22 19 20 17 16 14 14 15 13
4 8 5 5 11 3 5 8 17 19 8 11 13 17 22 25 27 29 30 31 33 32 32 33 32 31 31 29 24 24 23 21 18 22 27 26 24 21 22 23 21 22 20 18 17 15 15 14 14
2 7 10 8 8 15 15 16 13 16 12 12 14 18 21 24 26 26 27 27 29 32 33 33 32 32 31 28 27 25 24 25 24 20 19 28 30 32 29 27 23 24 22 21 18 17 16 15 16
6 10 7 8 9 10 7 7 3 14 11 12 13 15 18 23 25 26 29 30 31 30 32 32 31 31 31 29 28 26 24 27 25 23 19 20 30 31 34 30 23 23 25 20 18 17 18 18 18
6 4 4 12 9 5 5 5 10 10 8 11 13 13 14 22 24 26 26 27 29 30 30 31 31 31 32 29 29 25 25 26 26 24 20 19 21 30 29 31 30 24 22 22 20 18 17 19 19
1 3 5 6 11 4 3 2 8 9 9 11 12 12 13 16 22 24 26 26 27 28 31 30 30 31 32 29 28 26 24 24 25 23 23 19 17 22 34 28 30 27 26 24 23 21 20 22 22
3 4 4 1 5 7 7 3 7 9 9 11 11 12 12 14 20 24 25 27 27 27 30 31 30 31 32 28 28 26 25 22 23 21 23 23 19 16 21 22 27 24 27 25 26 26 24 22 22
4 5 4 8 6 10 2 5 6 7 9 11 12 13 13 14 16 21 25 26 26 26 27 29 30 30 30 28 28 27 25 24 20 22 23 24 22 18 13 20 23 34 30 27 26 27 27 23 22
4 7 10 7 4 9 2 2 4 8 11 14 15 16 17 17 19 21 23 25 26 27 28 29 30 30 31 29 30 30 29 28 24 23 25 25 25 22 18 15 22 25 27 26 28 29 30 23 21
4 7 6 7 3 8 2 3 3 8 11 12 14 16 19 21 23 29 28 28 28 27 27 28 30 29 28 28 26 25 26 24 24 22 25 24 25 24 20 17 16 24 26 28 32 33 25 24 27
3 4 6 9 12 12 8 10 7 6 8 9 11 11 13 15 18 23 29 28 31 31 30 28 28 28 27 27 27 26 24 24 22 26 26 26 28 24 21 21 22 20 28 27 33 34 30 24 27
8 2 12 11 8 5 6 3 10 5 4 10 12 13 15 17 17 23 28 25 25 29 28 28 27 27 26 27 26 26 23 25 27 26 26 29 24 25 23 22 23 23 24 27 29 35 32 30 25
5 16 14 13 10 6 8 5 6 4 3 9 10 13 15 15 17 19 23 25 26 28 27 25 26 27 26 27 24 25 24 24 26 26 26 25 24 24 25 22 25 25 18 30 29 32 35 32 30
12 10 5 3 3 5 4 4 4 2 2 6 10 14 16 16 16 21 23 24 24 25 28 27 26 25 26 26 25 25 25 27 26 25 26 24 26 26 23 23 25 27 25 17 32 33 35 33 31
13 11 3 3 3 3 2 8 3 6 3 5 12 16 17 17 18 21 25 26 25 26 28 27 26 27 27 25 26 25 25 26 25 25 24 26 25 25 25 25 27 27 28 25 15 31 34 36 35
5 6 3 5 5 10 12 5 2 4 2 4 10 14 18 18 16 19 25 27 27 27 27 28 28 28 27 26 27 25 25 24 25 25 25 25 24 23 25 26 26 28 29 29 26 20 32 35 36
4 4 2 4 6 6 3 2 4 5 6 11 14 17 18 20 19 19 26 27 27 29 28 26 28 28 27 27 27 26 25 25 25 26 26 25 24 24 23 25 26 26 27 27 28 25 28 32 36
4 2 2 1 5 10 8 8 7 2 4 12 15 15 18 20 20 22 26 27 29 29 28 27 26 26 27 27 27 27 27 25 26 25 25 26 26 26 25 24 24 27 26 26 27 30 23 34 32
0 1 1 3 4 6 9 7 2 2 5 12 13 16 18 17 18 19 25 27 28 29 28 28 27 26 26 27 28 28 29 28 25 25 24 26 27 26 26 24 25 25 25 25 23 27 33 35 34
1 3 3 3 4 8 9 12 3 3 7 13 16 20 21 19 19 24 27 28 29 29 29 28 28 28 27 28 28 29 29 28 27 24 25 25 26 26 26 25 24 25 24 25 22 25 28 31 35
Wind_Direction
350 358 350 250 226 242 168 164 351 192 199 178 128 243 18 349 355 0 11 3 293 169 174 178 186 185 183 188 188 182 178 178 180 176 175 175 174 175 172 169 164 159 155 156 154 156 152 156 155
335 310 246 260 254 208 127 90 174 359 1 336 271 244 298 61 17 7 359 0 33 166 176 181 190 192 193 194 195 193 189 185 186 183 189 187 184 180 179 178 172 171 165 168 163 164 164 166 167
328 359 260 250 245 41 108 136 37 347 314 282 258 322 18 10 21 3 354 335 0 180 189 192 200 200 201 203 204 201 199 198 196 192 194 190 187 188 185 186 181 175 175 178 172 173 178 171 170
307 193 155 252 165 79 56 63 351 330 96 56 323 109 102 33 356 346 344 353 337 211 216 221 211 208 206 214 215 207 204 205 206 203 200 199 193 191 190 193 189 181 181 186 184 184 175 164 163
31 240 248 242 86 65 39 3 349 355 58 14 340 67 90 23 8 7 4 1 357 340 306 275 241 233 221 220 222 218 211 209 208 208 208 204 205 202 200 198 192 186 190 188 184 175 172 171 167
202 289 243 243 116 81 65 29 21 36 54 20 14 340 84 16 7 1 16 25 29 23 21 15 351 280 250 239 234 230 224 219 214 210 210 209 206 204 201 198 195 191 196 186 181 175 174 172 172
268 258 308 286 233 143 73 351 35 12 24 23 331 7 347 2 354 355 6 20 23 20 17 10 4 355 324 260 244 240 233 225 221 214 209 207 205 205 206 205 206 204 203 191 186 182 177 174 175
307 256 199 199 166 116 30 43 10 31 54 21 16 16 351 339 346 352 8 17 18 17 14 9 4 355 348 337 297 250 238 228 223 217 214 210 210 210 218 216 215 212 206 194 189 187 183 183 186
310 238 229 59 231 98 27 350 42 49 65 56 44 28 350 348 355 7 11 12 10 11 10 5 1 358 352 344 322 310 255 238 227 222 219 214 210 212 213 206 210 196 192 190 189 193 195 194 203
305 263 52 26 36 41 55 43 14 36 39 23 14 13 6 7 12 16 15 9 6 4 3 2 0 357 353 349 340 328 313 253 234 226 221 217 215 211 202 203 200 190 188 188 194 200 205 198 198
35 30 110 34 7 333 105 74 42 353 44 19 9 6 10 13 16 16 13 10 4 359 0 1 358 356 355 348 344 337 320 337 253 234 224 219 214 215 212 200 200 193 189 187 192 197 195 196 201
151 62 51 32 22 8 53 95 67 53 47 17 30 21 18 20 18 14 9 5 3 2 359 357 357 355 354 351 345 338 331 324 324 267 239 229 219 217 218 209 200 195 194 194 193 193 196 201 198
135 121 63 75 84 73 88 86 89 43 22 22 21 25 24 21 18 14 8 6 3 2 359 357 356 355 352 351 346 340 335 327 320 308 278 243 228 223 227 216 202 199 196 201 196 191 194 200 194
83 94 92 59 69 74 100 64 123 23 18 24 22 25 21 19 16 14 11 5 2 359 358 356 356 354 352 349 346 342 337 332 324 318 317 288 240 229 217 216 203 202 196 199 199 193 193 201 196
145 164 138 27 1 52 167 65 41 13 22 34 31 22 21 17 16 15 8 6 1 358 355 357 355 353 352 349 346 343 337 334 330 319 310 321 284 238 221 213 204 200 196 197 193 192 196 204 203
320 241 251 46 7 29 291 110 40 22 23 33 30 25 16 22 13 10 7 2 360 358 357 356 355 354 352 349 346 341 338 335 332 327 330 319 312 287 223 211 204 199 206 196 193 193 197 206 204
46 277 280 253 37 341 356 93 44 22 27 31 26 20 16 11 11 9 5 2 358 357 356 355 356 355 352 348 345 343 338 336 332 331 332 328 316 314 285 228 228 200 221 213 206 202 196 208 205
323 301 280 290 12 338 337 101 58 36 31 27 19 14 11 7 8 5 3 1 358 357 356 355 353 355 352 349 347 342 340 337 336 331 333 327 328 310 305 261 224 212 215 213 206 205 204 205 203
302 286 286 289 324 324 348 134 55 32 33 24 16 9 5 2 353 358 359 360 358 358 356 355 353 351 353 352 348 345 340 336 332 331 330 332 326 324 307 329 242 220 211 207 207 205 204 199 203
311 295 302 287 185 313 205 227 112 54 47 33 17 11 2 355 354 352 351 354 357 355 353 351 351 349 349 347 343 340 334 329 326 327 328 328 328 323 318 297 307 234 225 211 204 203 194 198 195
302 288 319 295 309 270 236 228 194 135 73 52 30 12 1 354 345 347 345 346 349 350 349 347 346 345 346 343 341 339 339 335 335 332 330 328 327 324 318 306 287 263 219 212 208 205 196 190 194
311 297 311 295 300 289 193 285 189 174 113 31 13 6 359 351 344 341 343 339 343 344 342 341 341 342 341 343 338 340 338 333 330 327 324 325 324 322 314 309 303 289 239 219 210 206 205 195 193
321 312 297 291 266 275 205 254 112 176 185 0 354 355 352 346 340 337 337 335 333 339 339 336 336 337 338 339 336 335 331 328 325 325 324 325 322 319 318 312 301 293 303 223 219 209 210 207 203
320 302 267 218 236 249 162 289 166 158 29 342 346 349 347 341 337 334 333 333 331 334 337 335 335 334 335 334 335 333 327 327 325 325 324 324 323 322 316 314 304 294 291 293 222 219 212 206 207
360 349 298 243 224 316 138 289 342 132 105 349 337 343 343 341 337 335 336 334 330 332 333 332 331 331 333 331 331 330 326 322 320 321 320 320 319 320 318 314 310 304 290 281 275 224 218 211 210
6 15 11 299 306 305 292 256 60 151 155 340 347 334 335 337 335 333 332 330 329 330 330 328 328 326 329 328 327 326 323 319 315 315 315 312 310 313 313 311 306 301 297 283 274 270 221 214 211
22 27 3 279 231 271 273 181 163 193 261 341 338 335 330 334 336 334 331 330 328 329 328 326 323 321 321 323 324 322 320 318 314 312 312 311 312 311 310 309 306 301 296 285 278 268 237 220 216
27 14 241 176 295 310 304 293 300 223 301 325 330 327 330 331 331 330 330 327 327 326 325 324 321 319 318 317 318 316 316 315 312 310 310 310 311 312 312 310 306 300 296 289 277 275 271 223 220
213 66 332 279 257 293 303 306 96 199 296 320 322 329 328 327 325 325 324 325 325 324 325 324 322 320 318 316 315 313 313 313 311 307 307 309 311 310 308 310 306 301 295 289 281 274 261 230 219
273 289 275 294 284 276 288 290 166 230 318 321 327 328 328 327 324 325 326 326 326 325 325 324 323 321 320 317 315 312 310 310 309 309 307 309 309 307 307 309 306 300 299 289 276 274 272 267 218
Height
802 800 800 798 800 793 795 795 792 793 792 784 783 782 782 779 785 795 784 784 783 783 784 786 787 788 790 792 793 794 796 797 798 799 801 802 803 806 806 807 809 811 811 812 814 815 815 817 817
803 801 801 797 798 794 795 795 797 791 788 787 787 784 784 786 783 783 784 787 786 786 786 787 788 789 791 791 793 795 796 797 798 800 801 802 803 804 805 807 809 811 812 812 813 815 816 817 818
803 802 798 797 796 793 796 796 794 792 789 789 787 785 785 793 789 791 792 790 789 788 789 789 789 790 791 791 792 794 795 797 799 800 801 802 803 805 806 807 809 810 812 813 814 814 816 817 819
804 802 803 798 796 799 798 796 799 793 789 789 788 788 792 807 804 801 795 793 792 790 791 791 790 792 792 793 793 794 794 796 797 799 801 802 803 804 805 806 809 810 812 813 814 815 816 817 819
804 801 800 801 801 802 801 802 801 797 794 793 792 794 795 809 812 806 801 799 796 795 795 794 794 794 794 794 795 795 796 796 798 800 801 802 803 804 804 806 807 809 811 812 814 815 816 818 819
802 803 800 798 803 806 805 805 802 800 797 802 797 797 804 821 813 813 809 803 800 798 796 794 795 798 796 796 796 797 797 798 799 800 801 803 804 804 805 806 807 808 811 813 814 815 816 818 819
803 802 803 806 804 805 809 807 809 806 809 817 813 801 805 816 825 822 817 811 806 802 799 797 795 794 793 796 794 795 796 797 797 798 799 801 802 803 804 805 806 808 810 812 814 815 817 818 819
806 803 808 806 804 813 815 811 812 813 824 822 829 837 829 837 832 826 820 814 811 808 805 802 800 796 793 791 793 794 793 793 794 795 797 798 801 802 803 804 805 806 808 811 813 815 815 818 820
811 808 806 809 812 816 816 816 817 825 831 838 851 857 857 848 838 827 817 813 812 812 812 809 804 800 797 793 790 789 792 791 791 793 794 796 797 799 801 803 803 804 806 810 812 814 816 817 820
810 810 814 820 819 821 837 830 831 829 839 849 854 859 857 850 841 832 828 826 823 819 817 815 810 806 800 796 791 789 788 789 790 790 790 793 795 796 798 800 802 804 806 808 812 815 816 818 820
817 817 821 828 828 824 830 843 848 836 849 861 864 864 859 853 845 841 839 838 835 831 825 819 815 811 806 800 795 791 788 786 786 786 786 787 790 794 797 798 800 803 805 809 811 813 816 817 818
817 827 825 833 835 828 829 846 860 860 869 868 868 868 864 858 853 850 845 842 838 834 829 824 819 814 810 805 800 795 789 785 782 784 783 785 786 787 794 795 797 800 803 805 808 811 814 816 817
819 828 835 838 836 841 842 851 860 870 872 872 870 869 867 864 862 858 854 848 842 837 833 827 822 817 811 807 802 797 791 785 781 779 779 781 782 780 785 791 792 796 798 802 805 808 811 814 816
828 833 839 840 841 845 847 860 855 874 874 872 872 870 871 869 866 862 857 851 845 841 836 831 825 819 813 808 804 799 793 787 782 779 776 777 778 777 779 782 788 791 793 797 801 805 808 811 814
829 831 835 843 844 844 846 851 874 879 876 874 874 873 872 873 869 865 862 857 851 845 839 832 826 821 816 809 804 800 795 790 783 778 775 773 773 775 773 774 780 784 788 792 796 801 805 809 812
833 830 824 850 849 847 841 837 878 880 877 876 875 875 874 873 872 869 865 860 855 848 842 836 830 823 817 812 806 800 796 792 787 782 776 773 770 769 755 761 771 775 783 788 791 796 801 805 808
835 817 834 838 854 852 847 851 881 882 879 877 876 876 875 874 873 870 867 862 857 851 845 838 832 825 820 814 808 802 797 793 788 784 779 773 770 766 763 760 758 764 774 784 786 791 796 802 804
851 837 843 845 851 856 855 872 881 884 881 878 877 876 876 875 874 871 868 863 858 853 847 841 834 828 822 816 810 804 798 793 789 786 781 775 770 766 763 763 766 767 776 778 779 786 793 797 800
864 860 855 855 864 864 867 873 882 883 881 880 880 879 877 876 875 871 868 864 859 853 847 842 836 829 823 817 811 805 799 793 789 786 781 776 771 767 764 762 763 767 767 770 775 783 789 792 796
868 861 857 860 867 868 868 875 883 884 886 888 888 886 883 877 872 868 865 862 858 853 848 842 837 831 826 821 815 810 803 797 791 786 782 777 771 768 764 762 761 762 764 767 773 778 781 785 790
868 869 871 873 866 862 863 862 877 884 886 889 891 892 890 887 880 874 867 862 857 852 847 843 838 832 827 821 816 809 803 798 791 786 781 777 772 767 764 760 758 760 759 763 766 769 772 777 782
867 877 876 873 868 849 863 835 871 879 884 891 894 893 890 887 883 877 870 865 861 856 849 843 837 832 826 822 816 810 805 799 793 787 782 777 772 767 763 760 758 755 758 759 760 764 767 771 774
880 880 877 872 869 868 861 862 862 878 882 899 899 895 892 889 885 878 873 867 860 855 850 845 838 832 826 821 816 810 804 800 794 788 781 776 771 767 762 757 754 753 751 753 755 758 761 763 767
881 873 871 869 865 871 856 862 851 874 897 900 898 894 891 887 883 878 872 866 860 855 848 841 836 832 826 820 814 809 803 797 792 786 781 775 770 765 761 756 752 749 747 746 749 751 753 755 760
879 866 853 858 864 848 866 866 863 894 899 901 901 895 890 885 879 873 867 862 857 851 846 841 835 828 822 817 812 807 801 796 790 785 780 775 769 764 759 755 750 745 743 742 741 744 745 747 751
886 884 880 885 867 864 863 871 868 897 901 902 898 895 890 884 878 872 866 860 853 847 842 837 831 825 821 815 809 803 799 794 788 783 779 774 768 763 758 753 748 742 739 737 737 736 738 741 743
886 887 895 896 883 885 859 872 895 898 895 897 898 893 889 880 875 869 864 857 851 844 839 834 828 822 817 812 807 801 796 791 785 780 775 770 765 760 756 750 743 739 736 733 731 731 730 733 736
890 895 890 885 894 885 862 874 866 898 897 900 899 895 884 879 873 867 861 855 848 842 836 831 826 820 814 809 804 798 793 787 782 776 770 766 760 755 751 746 741 737 731 728 726 724 723 726 727
892 892 894 897 891 886 879 866 891 897 903 904 899 890 882 876 871 865 859 852 846 839 833 827 821 816 810 805 799 794 787 782 778 772 767 762 756 751 746 742 737 733 729 724 720 718 716 716 719
901 897 899 898 889 884 888 883 899 903 906 896 890 883 878 873 867 861 855 848 842 836 830 824 818 812 807 800 795 788 783 777 772 767 762 757 752 747 741 736 731 729 721 721 715 711 710 708 708